[[{"header":{"parameterUnit":"m.s-1","parameterCategory":1,"la1":30.2992,"la2":30.254,"lo1":-89.0895,"lo2":-89.0443,"dy":0.0025,"dx":0.0025,"nx":19,"ny":19,"refTime":"2026-04-22T21:00:00:Z","depth":0,"parameterNumber":2,"parameterNumberName":"U-component_of_WINDS"},"data":[0,0,0,-3.2922,-3.2924,-3.3019,-3.302,-3.3147,-3.3148,0,0,0,0,0,0,0,0,0,0,0,-3.2897,-3.2898,-3.2922,-3.2924,-3.3019,-3.302,-3.3147,-3.3148,0,0,0,0,0,0,0,0,0,0,0,-3.2897,-3.2898,-3.2899,-3.2924,-3.3019,-3.302,-3.3146,-3.3072,0,0,0,0,0,0,0,0,0,0,-3.2979,-3.296,-3.2898,-3.2899,-3.2925,-3.3019,-3.302,-3.3069,-3.3077,-3.3106,0,-3.3133,0,-3.3143,-3.3157,-3.3158,0,0,0,-3.2921,-3.2953,-3.2975,-3.2899,-3.2926,-3.3019,-3.2976,-3.3073,-3.3083,-3.3117,-3.3135,-3.314,-3.3145,-3.3158,-3.3159,-3.3336,-3.3337,0,0,-3.2916,-3.2916,-3.2969,-3.2982,-3.2968,-3.2973,-3.2979,-3.3079,-3.3098,-3.3136,-3.3143,-3.3147,-3.3159,-3.316,-3.3335,-3.3336,0,0,0,-3.2903,-3.2913,-3.2932,-3.2977,-3.2994,-3.2975,-3.2982,-3.3094,-3.31,-3.3144,-3.3149,-3.316,-3.3161,-3.3334,-3.3335,-3.3382,0,0,0,-3.2899,-3.2905,-3.293,-3.2931,-3.2992,-3.3045,-3.2995,-3.3093,-3.3105,-3.3148,-3.316,-3.3162,-3.3333,-3.3335,-3.3378,-3.3403,0,0,0,-3.289,-3.2904,-3.2919,-3.2931,-3.2972,-3.3043,-3.3056,-3.3096,-3.3108,-3.3158,-3.3163,-3.3332,-3.3334,-3.3375,-3.3398,-3.3448,0,0,0,-3.2879,-3.2959,-3.292,-3.3011,-3.2972,-3.3072,-3.3055,-3.313,-3.3178,-3.316,-3.3333,-3.3335,-3.3374,-3.3394,-3.3445,-3.3489,-3.3508,0,0,-3.298,-3.2971,-3.3025,-3.2992,-3.31,-3.3058,-3.3172,-3.3216,-3.3221,-3.3297,-3.3301,-3.3379,-3.3397,-3.3447,-3.3619,-3.3634,0,0,0,-3.3057,-3.3095,-3.3124,-3.317,-3.3206,-3.3239,-3.3266,-3.3282,-3.3347,-3.326,-3.3412,-3.3423,-3.3452,-3.3473,-3.3486,-3.351,-3.3346,-3.3345,-3.3345,-3.3199,-3.3201,-3.3289,-3.3303,-3.3348,-3.3375,-3.3411,-3.3438,-3.3427,-3.3463,-3.3485,-3.3589,-3.3613,-3.3623,-3.3648,-3.351,-3.3511,-3.3511,-3.3511,-3.3345,-3.3399,-3.3383,-3.3462,-3.3464,-3.3531,-3.3561,-3.3551,-3.3613,-3.3572,-3.3598,-3.3551,-3.3639,-3.3662,-3.3515,-3.3514,-3.3513,-3.3513,-3.3513,-3.3436,-3.3462,-3.3481,-3.3547,-3.3599,-3.361,-3.367,-3.367,-3.3671,-3.3697,-3.3719,-3.3718,-3.3715,-3.3708,-3.3708,-3.3708,-3.3709,-3.3709,-3.3709,-3.3522,-3.3542,-3.3592,-3.3638,-3.3667,-3.3705,-3.3734,-3.3763,-3.3795,-3.379,-3.379,-3.3774,-3.3649,-3.3615,-3.3715,-3.3714,-3.3713,-3.3713,-3.3712,-3.3665,-3.3633,-3.3711,-3.374,-3.3793,-3.3843,-3.3843,-3.3901,-3.3926,-3.3955,-3.3935,-3.3843,-3.3833,-3.3823,-3.3795,-3.3935,-3.3935,-3.3935,-3.3935,-3.374,-3.3736,-3.3815,-3.3862,-3.3908,-3.3916,-3.4003,-3.4027,-3.4046,-3.406,-3.4041,-3.4005,-3.3995,-3.3992,-3.3978,-3.3952,-3.4128,-3.4129,-3.4129,-3.3827,-3.3828,-3.3902,-3.392,-3.3961,-3.3997,-3.4078,-3.4132,-3.4148,-3.4137,-3.4072,-3.4063,-3.4006,-3.3988,-3.3972,-3.3951,-3.3903,0,0]},{"header":{"parameterUnit":"m.s-1","parameterCategory":1,"la1":30.2992,"la2":30.254,"lo1":-89.0895,"lo2":-89.0443,"dy":0.0025,"dx":0.0025,"nx":19,"ny":19,"refTime":"2026-04-22T21:00:00:Z","depth":0,"parameterNumber":3,"parameterNumberName":"V-component_of_WINDS"},"data":[0,0,0,3.3453,3.3454,3.3481,3.3481,3.3531,3.3532,0,0,0,0,0,0,0,0,0,0,0,3.3454,3.3454,3.3453,3.3454,3.3481,3.3481,3.3531,3.3532,0,0,0,0,0,0,0,0,0,0,0,3.3453,3.3454,3.3455,3.3454,3.3481,3.3481,3.3531,3.3505,0,0,0,0,0,0,0,0,0,0,3.3475,3.3485,3.3454,3.3455,3.3454,3.3481,3.3481,3.3503,3.3506,3.3525,0,3.3544,0,3.3539,3.3536,3.3536,0,0,0,3.3447,3.3482,3.3482,3.3455,3.3455,3.3481,3.3467,3.3505,3.3508,3.3529,3.3544,3.3546,3.3539,3.3536,3.3537,3.3666,3.3667,0,0,3.3445,3.3463,3.348,3.3485,3.3482,3.3466,3.3468,3.3507,3.3524,3.3544,3.3547,3.354,3.3537,3.3537,3.3665,3.3666,0,0,0,3.3446,3.3462,3.3461,3.3483,3.3487,3.3467,3.3469,3.3523,3.3521,3.3547,3.3541,3.3537,3.3538,3.3664,3.3666,3.3728,0,0,0,3.3444,3.3463,3.346,3.3472,3.3487,3.3505,3.3485,3.3518,3.3522,3.3541,3.3537,3.3538,3.3663,3.3665,3.3724,3.3753,0,0,0,3.3449,3.3463,3.347,3.3472,3.3485,3.3504,3.3504,3.3518,3.3518,3.3536,3.3539,3.3663,3.3665,3.372,3.3747,3.3791,0,0,0,3.3458,3.3525,3.3471,3.3544,3.3485,3.3543,3.3504,3.3546,3.3569,3.3537,3.3663,3.3666,3.3719,3.3744,3.3787,3.3829,3.3849,0,0,3.3552,3.3537,3.3578,3.3531,3.3603,3.3538,3.3619,3.3623,3.3608,3.3648,3.3651,3.3725,3.3747,3.379,3.3959,3.3975,0,0,0,3.3613,3.3643,3.3658,3.3681,3.3687,3.3693,3.3683,3.3685,3.3718,3.3632,3.3753,3.3766,3.3791,3.381,3.3823,3.3842,3.3676,3.3676,3.3676,3.3769,3.3748,3.3814,3.3797,3.382,3.381,3.3826,3.3826,3.3798,3.3827,3.3837,3.3942,3.3965,3.3975,3.3996,3.386,3.386,3.3861,3.3861,3.3902,3.394,3.3902,3.3953,3.393,3.3972,3.3966,3.3944,3.398,3.3932,3.3953,3.3901,3.3993,3.401,3.3865,3.3864,3.3864,3.3863,3.3863,3.3999,3.4014,3.4016,3.4047,3.4074,3.4055,3.4091,3.4069,3.4049,3.407,3.4078,3.4077,3.4071,3.4076,3.4077,3.4077,3.4077,3.4078,3.4078,3.4098,3.4099,3.4132,3.4145,3.4157,3.417,3.4163,3.4174,3.4181,3.4162,3.4162,3.413,3.4008,3.3976,3.4083,3.4082,3.4082,3.4081,3.4081,3.4236,3.4202,3.4253,3.4265,3.4279,3.4307,3.428,3.4306,3.4312,3.433,3.4295,3.4209,3.4191,3.418,3.4154,3.4301,3.4301,3.4301,3.4301,3.4316,3.4306,3.4353,3.4375,3.4394,3.4375,3.4433,3.4429,3.4418,3.4421,3.4397,3.4361,3.4351,3.4339,3.4325,3.4299,3.448,3.448,3.448,3.4398,3.439,3.4443,3.4433,3.4443,3.4451,3.4505,3.453,3.4512,3.4487,3.4422,3.4414,3.4356,3.4338,3.4309,3.4287,3.424,0,0]}]]